Regional Weather Roundup
Issued by NWS

Home | Current Version | Previous Version | Graphics & Text | Print | Product List | Glossary On
Versions: 1 2 3 4 5 6 7 8 9 10 11 12 13 14 15 16 17 18 19 20 21 22 23 24 25 26 27 28 29 30 31 32 33 34 35 36 37 38 39 40 41 42 43 44 45 46 47 48 49 50
000
ASUS43 KLOT 240810
RWRIL

ILLINOIS REGIONAL WEATHER ROUNDUP
NATIONAL WEATHER SERVICE CHICAGO/ROMEOVILLE IL
300 AM CDT FRI OCT 24 2014

NOTE: "FAIR" INDICATES FEW OR NO CLOUDS BELOW 12,000 FEET WITH NO
SIGNIFICANT WEATHER AND/OR OBSTRUCTIONS TO VISIBILITY.

* THESE STATIONS ARE NOT UNDER NWS QUALITY CONTROL. THEY ALSO MAY NOT
  REPORT WEATHER SUCH AS PRECIPITATION OR FOG.

ILZ001-002-007-009-015-016-024-240900-
NORTHWEST ILLINOIS

CITY           SKY/WX    TMP DP  RH WIND       PRES   REMARKS
MOLINE         MOCLDY    42  41  96 CALM      30.05S FOG
STERLING*      CLEAR     46  45  93 SW5       30.05S
SAVANNA*       FOG       48  47  94 CALM      30.05S VSB 1/4
$$

ILZ003-004-008-010-011-017-018-240900-
NORTH CENTRAL ILLINOIS

CITY           SKY/WX    TMP DP  RH WIND       PRES   REMARKS
ROCKFORD       FOG       42  40  92 SE3       30.05F VSB 1/2
FREEPORT*      CLOUDY    50  49  95 CALM      30.06S FOG
ROCHELLE*      CLOUDY    43  42  98 CALM      30.05S
DE KALB*       CLOUDY    46  44  91 S5        30.05S
PERU*          CLEAR     48  43  83 W8        30.06R
$$

ILZ005-006-012>014-019>023-240900-
NORTHEAST ILLINOIS

CITY           SKY/WX    TMP DP  RH WIND       PRES   REMARKS
CHICAGO-OHARE  CLOUDY    54  44  69 SW5       30.04S
CHICAGO-MIDWAY CLOUDY    55  45  68 S6        30.05
AURORA         MOCLDY    50  44  80 CALM      30.05F
LANSING*       CLOUDY    52  44  74 SW6       30.06S
JOLIET*        CLOUDY    51  46  82 CALM      30.06S
WAUKEGAN       CLEAR     47  43  86 CALM      30.03S
DUPAGE AIRPORT CLOUDY    53  45  74 S6        30.04
KANKAKEE*      CLOUDY    51  47  87 S6        30.07S
WHEELING       CLOUDY    54  45  71 S5        30.06S
MORRIS*        CLOUDY    50  48  92 CALM      30.04F
ROMEOVILLE*    CLOUDY    51  45  79 CALM      30.05F
NORTHERLY ISL    N/A     55  42  61 S6          N/A
$$

LMZ740>746-240900-
SOUTHERN LAKE MICHIGAN

STATION/POSITION SKY/WX   TEMP    WIND        PRES    VSBY  WAVE
                          AIR SEA DIR/SP/G                  HT/PER
                          (F)     (DEG/KT/KT) (MB)    (MI)  (FT/S)
SOUTHERN BUOY              55 54  210/ 10/ 12 1017.4S         1/ 3
WAUKEGAN HARBOR            53     250/  6/  8   N/A
HARRISON CRIB              55     200/ 12/ 14   N/A
BURNHAM HARBOR             55     240/  3/  7   N/A
CALUMET HARBOR             54     210/  4/  6 1016.5S
MICHIGAN CITY              53     160/  6/  9   N/A
$$

ILZ025>027-034>036-040-047-049-050-058-095>099-240900-
WEST-CENTRAL ILLINOIS

CITY           SKY/WX    TMP DP  RH WIND       PRES   REMARKS
QUINCY         CLOUDY    54  52  93 SW3       30.07S
GALESBURG*     CLEAR     50  48  93 CALM      30.05S
MACOMB*        CLOUDY    54  51  91 W6        30.08S
JACKSONVILLE*  MOCLDY    53  48  83 SW3       30.07S
PITTSFIELD*    PTCLDY    55  51  87 W5        30.08S
$$

ILZ028>032-037-038-041>044-048-051>054-059>061-240900-
CENTRAL ILLINOIS

CITY           SKY/WX    TMP DP  RH WIND       PRES   REMARKS
PONTIAC        CLEAR     47  46  93 CALM      30.06S
BLOOMINGTON    CLEAR     49  45  86 SW7       30.07S
DECATUR        CLOUDY    54  47  77 CALM      30.08S
PEORIA         CLOUDY    56  47  71 W3        30.06R
LACON*         CLEAR     46  44  90 CALM      30.05S
LINCOLN*       MOCLDY    55  47  75 CALM      30.05F
SPRINGFIELD    CLEAR     49  44  83 CALM      30.07S
TAYLORVILLE    MOCLDY    50  45  81 S7        30.07S
$$

ILZ033-039-045-046-055>057-062-063-240900-
EAST-CENTRAL ILLINOIS

CITY           SKY/WX    TMP DP  RH WIND       PRES   REMARKS
CHAMPAIGN      CLOUDY    51  48  89 S5        30.07
DANVILLE*      CLOUDY    48  44  87 CALM      30.06S
RANTOUL*       CLOUDY    52  47  84 CALM      30.07F
MATTOON        CLOUDY    53  44  71 S7        30.07F
PARIS*         CLOUDY    47  45  90 CALM      30.10S
$$

ILZ079-100>102-240900-
SOUTHWEST ILLINOIS

CITY           SKY/WX    TMP DP  RH WIND       PRES   REMARKS
ALTON          CLOUDY    53  47  81 CALM      30.08F
BELLEVILLE     MOCLDY    51  48  92 CALM      30.08S
CAHOKIA*       MOCLDY    50  47  89 CALM      30.09R
SPARTA*        MOCLDY    51  46  84 S3        30.10S
$$

ILZ064>066-069>071-074>076-080>082-084>086-088>090-092>094-240900-
SOUTH-CENTRAL ILLINOIS

CITY           SKY/WX    TMP DP  RH WIND       PRES   REMARKS
CARBONDALE     MOCLDY    46  44  93 S3        30.11F
CAIRO*         PTCLDY    43  40  90 CALM      30.14S
EFFINGHAM*     CLOUDY    52  43  71 CALM      30.09S
MARION         CLOUDY    48  46  93 S5        30.11F
MT. VERNON     CLOUDY    48  45  87 CALM      30.11S
CENTRALIA*     CLOUDY    51  46  82 S3        30.09F
SALEM*         MOCLDY    53  49  85 S5        30.09F
METROPOLIS*    FOG       42  42 100 CALM      30.13S VSB<1/4
$$

ILZ067-068-072-073-078-083-087-091-240900-
SOUTHEAST ILLINOIS

CITY           SKY/WX    TMP DP  RH WIND       PRES   REMARKS
LAWRENCEVILLE  CLOUDY    49  47  93 CALM      30.12S
FLORA*         CLEAR     49  46  91 CALM      30.10S
FAIRFIELD*     CLOUDY    49  46  88 CALM      30.09F
HARRISBURG*    CLOUDY    44  44 100 CALM      30.13F
ROBINSON*      CLOUDY    49  47  95 CALM      30.11F
CARMI*         PTCLDY    45  45 100 CALM      30.11F
$$

ABBREVIATIONS USED IN REMARKS
   TC - TEMPERATURE IN CELSIUS
  WCI - WIND CHILL INDEX
   HX - HEAT INDEX
  VSB - VISIBILITY
$$




USA.gov is the U.S. government's official web portal to all federal, state and local government web resources and services.